When you browse on this site, cookies collect data to enhance your experience and personalize the content and advertising you see.
Visit our Privacy Policy to learn more. By continuing to use the site, you agree to this use of cookies and data.
  • In Czech Republic
  • List of Countries
  • For 7 days
  • Water Temperature
  • Weather Map
  • Weather Widgets
  • user-avatar
    Login

    Hourly Weather Lyapunovka

    Today, 29 January, Wednesday

    Time Temperature Precipitation Wind Pressure Humidity
    00:00 -4°C° 0 mm 3 mps 740 mmHg 97%
    01:00 -2°C° 0 mm 3 mps 740 mmHg 97%
    02:00 -1°C° 0 mm 3 mps 740 mmHg 97%
    03:00 -2°C° 0 mm 3 mps 740 mmHg 96%
    04:00 -2°C° 0 mm 3 mps 740 mmHg 96%
    05:00 -2°C° 0 mm 3 mps 739 mmHg 96%
    06:00 -4°C° 0 mm 3 mps 739 mmHg 95%
    07:00 -5°C° 0 mm 3 mps 739 mmHg 94%
    08:00 -5°C° 0 mm 3 mps 739 mmHg 94%
    09:00 -5°C° 0 mm 3 mps 739 mmHg 94%
    10:00 -4°C° 0 mm 3 mps 738 mmHg 95%
    11:00 -4°C° 0 mm 3 mps 738 mmHg 96%
    12:00 -2°C° 0.1 mm 3 mps 738 mmHg 97%
    13:00 -1°C° 0.1 mm 3 mps 738 mmHg 98%
    14:00 0°C° 0.1 mm 3 mps 738 mmHg 99%
    15:00 0°C° 0 mm 3 mps 737 mmHg 99%
    16:00 0°C° 0 mm 3 mps 737 mmHg 99%
    17:00 -1°C° 0 mm 4 mps 736 mmHg 99%
    18:00 -1°C° 0 mm 4 mps 736 mmHg 99%
    19:00 -1°C° 0 mm 4 mps 736 mmHg 99%
    20:00 -1°C° 0 mm 4 mps 736 mmHg 98%
    21:00 -1°C° 0 mm 4 mps 735 mmHg 98%
    22:00 -1°C° 0 mm 4 mps 735 mmHg 98%
    23:00 -1°C° 0 mm 4 mps 734 mmHg 98%

    Tomorrow, 30 January, Thursday

    Time Temperature Precipitation Wind Pressure Humidity
    00:00 -1°C° 0.1 mm 4 mps 734 mmHg 98%
    01:00 -1°C° 0.1 mm 4 mps 733 mmHg 98%
    02:00 -1°C° 0.1 mm 4 mps 733 mmHg 98%
    03:00 -1°C° 0 mm 5 mps 732 mmHg 98%
    04:00 -2°C° 0 mm 6 mps 731 mmHg 99%
    05:00 -2°C° 0 mm 6 mps 731 mmHg 99%
    06:00 -2°C° 0.8 mm 6 mps 731 mmHg 98%
    07:00 -2°C° 0.8 mm 6 mps 731 mmHg 98%
    08:00 -2°C° 0.8 mm 6 mps 731 mmHg 97%
    09:00 -2°C° 0.1 mm 6 mps 731 mmHg 94%
    10:00 -3°C° 0.1 mm 6 mps 731 mmHg 91%
    11:00 -3°C° 0.1 mm 6 mps 731 mmHg 87%
    12:00 -3°C° 0 mm 6 mps 731 mmHg 86%
    13:00 -3°C° 0 mm 7 mps 731 mmHg 85%
    14:00 -3°C° 0 mm 7 mps 731 mmHg 84%
    15:00 -3°C° 0 mm 7 mps 731 mmHg 86%
    16:00 -4°C° 0 mm 7 mps 730 mmHg 87%
    17:00 -4°C° 0 mm 7 mps 730 mmHg 89%
    18:00 -5°C° 0.2 mm 8 mps 730 mmHg 91%
    19:00 -4°C° 0.2 mm 8 mps 730 mmHg 93%
    20:00 -4°C° 0.2 mm 9 mps 729 mmHg 95%
    21:00 -4°C° 0.5 mm 8 mps 729 mmHg 96%
    22:00 -4°C° 0.5 mm 8 mps 729 mmHg 96%
    23:00 -4°C° 0.5 mm 8 mps 728 mmHg 96%

    Day after tomorrow, 31 January, Friday

    Time Temperature Precipitation Wind Pressure Humidity
    00:00 -4°C° 0.4 mm 8 mps 728 mmHg 96%
    01:00 -4°C° 0.4 mm 7 mps 728 mmHg 96%
    02:00 -4°C° 0.4 mm 7 mps 728 mmHg 96%
    03:00 -4°C° 0.4 mm 7 mps 728 mmHg 96%
    04:00 -4°C° 0.4 mm 7 mps 728 mmHg 96%
    05:00 -4°C° 0.4 mm 7 mps 728 mmHg 96%
    06:00 -4°C° 0.2 mm 7 mps 729 mmHg 95%
    07:00 -6°C° 0.2 mm 7 mps 729 mmHg 94%
    08:00 -6°C° 0.2 mm 7 mps 730 mmHg 94%
    09:00 -6°C° 0.1 mm 7 mps 730 mmHg 92%
    10:00 -4°C° 0.1 mm 6 mps 731 mmHg 91%
    11:00 -4°C° 0.1 mm 6 mps 731 mmHg 90%
    12:00 -4°C° 0 mm 5 mps 732 mmHg 90%
    13:00 -4°C° 0 mm 5 mps 732 mmHg 89%
    14:00 -2°C° 0 mm 4 mps 733 mmHg 89%
    15:00 -2°C° 0.1 mm 4 mps 733 mmHg 91%
    16:00 -3°C° 0.1 mm 4 mps 733 mmHg 93%
    17:00 -2°C° 0.1 mm 3 mps 734 mmHg 95%
    18:00 -3°C° 0.1 mm 4 mps 734 mmHg 95%
    19:00 -3°C° 0.1 mm 4 mps 734 mmHg 95%
    20:00 -4°C° 0.1 mm 4 mps 735 mmHg 94%
    21:00 -4°C° 0.1 mm 3 mps 735 mmHg 94%
    22:00 -4°C° 0.1 mm 3 mps 735 mmHg 94%
    23:00 -3°C° 0.1 mm 2 mps 735 mmHg 93%

    1 February, Saturday

    Time Temperature Precipitation Wind Pressure Humidity
    00:00 -3°C° 0 mm 2 mps 735 mmHg 93%
    01:00 -4°C° 0 mm 2 mps 736 mmHg 94%
    02:00 -2°C° 0 mm 1 mps 736 mmHg 94%
    03:00 -3°C° 0 mm 1 mps 736 mmHg 94%
    04:00 -3°C° 0 mm 1 mps 736 mmHg 95%
    05:00 -3°C° 0 mm 1 mps 736 mmHg 95%
    06:00 -4°C° 0 mm 1 mps 737 mmHg 95%
    07:00 -5°C° 0 mm 0 mps 737 mmHg 94%
    08:00 -5°C° 0 mm 0 mps 737 mmHg 94%
    09:00 -4°C° 0 mm 0 mps 738 mmHg 94%
    10:00 -3°C° 0 mm 0 mps 738 mmHg 93%
    11:00 -2°C° 0 mm 0 mps 738 mmHg 92%
    12:00 -2°C° 0 mm 0 mps 738 mmHg 92%
    13:00 -2°C° 0 mm 0 mps 738 mmHg 93%
    14:00 -2°C° 0 mm 0 mps 739 mmHg 93%
    15:00 -3°C° 0 mm 0 mps 739 mmHg 93%
    16:00 -4°C° 0 mm 0 mps 739 mmHg 93%
    17:00 -5°C° 0 mm 0 mps 739 mmHg 93%
    18:00 -5°C° 0 mm 0 mps 739 mmHg 93%
    19:00 -4°C° 0 mm 1 mps 740 mmHg 93%
    20:00 -4°C° 0 mm 1 mps 740 mmHg 93%
    21:00 -4°C° 0 mm 1 mps 740 mmHg 94%
    22:00 -4°C° 0 mm 1 mps 740 mmHg 94%
    23:00 -6°C° 0 mm 2 mps 740 mmHg 94%

    2 February, Sunday

    Time Temperature Precipitation Wind Pressure Humidity
    00:00 -5°C° 0 mm 2 mps 740 mmHg 95%
    01:00 -4°C° 0 mm 2 mps 740 mmHg 95%
    02:00 -3°C° 0 mm 2 mps 740 mmHg 96%
    03:00 -4°C° 0 mm 3 mps 740 mmHg 95%
    04:00 -4°C° 0 mm 3 mps 740 mmHg 95%
    05:00 -4°C° 0 mm 4 mps 740 mmHg 94%
    06:00 -4°C° 0 mm 4 mps 739 mmHg 94%
    07:00 -4°C° 0 mm 4 mps 739 mmHg 94%
    08:00 -3°C° 0 mm 4 mps 739 mmHg 93%
    09:00 -4°C° 0 mm 5 mps 739 mmHg 93%
    10:00 -3°C° 0 mm 6 mps 739 mmHg 93%
    11:00 -3°C° 0 mm 7 mps 738 mmHg 92%
    12:00 -2°C° 0 mm 7 mps 738 mmHg 94%
    13:00 -2°C° 0 mm 7 mps 738 mmHg 95%
    14:00 -2°C° 0 mm 7 mps 737 mmHg 97%
    15:00 -2°C° 0.2 mm 7 mps 737 mmHg 98%
    16:00 -1°C° 0.2 mm 7 mps 736 mmHg 98%
    17:00 -1°C° 0.2 mm 7 mps 735 mmHg 98%
    18:00 -1°C° 0.6 mm 7 mps 735 mmHg 98%
    19:00 -1°C° 0.6 mm 7 mps 734 mmHg 98%
    20:00 -1°C° 0.6 mm 7 mps 733 mmHg 98%
    21:00 -1°C° 0.7 mm 7 mps 733 mmHg 99%
    22:00 -1°C° 0.7 mm 6 mps 733 mmHg 99%
    23:00 0°C° 0.7 mm 5 mps 733 mmHg 99%

    3 February, Monday

    Time Temperature Precipitation Wind Pressure Humidity
    00:00 0°C° 0.3 mm 5 mps 733 mmHg 98%
    01:00 0°C° 0.3 mm 5 mps 733 mmHg 98%
    02:00 -1°C° 0.3 mm 5 mps 733 mmHg 97%
    03:00 -1°C° 0 mm 5 mps 733 mmHg 97%
    04:00 -1°C° 0 mm 5 mps 732 mmHg 97%
    05:00 -1°C° 0 mm 5 mps 732 mmHg 96%
    06:00 -1°C° 0 mm 5 mps 732 mmHg 97%
    07:00 -1°C° 0 mm 4 mps 732 mmHg 97%
    08:00 -1°C° 0 mm 4 mps 732 mmHg 97%
    09:00 -1°C° 0.1 mm 4 mps 732 mmHg 98%
    10:00 -1°C° 0.1 mm 4 mps 732 mmHg 99%
    11:00 -1°C° 0.1 mm 4 mps 732 mmHg 99%
    12:00 -1°C° 0.1 mm 4 mps 732 mmHg 99%
    13:00 -1°C° 0.1 mm 4 mps 732 mmHg 99%
    14:00 -1°C° 0.1 mm 5 mps 731 mmHg 99%
    15:00 -1°C° 0.1 mm 5 mps 732 mmHg 99%
    16:00 -1°C° 0.1 mm 4 mps 732 mmHg 98%
    17:00 -1°C° 0.1 mm 4 mps 732 mmHg 97%
    18:00 -1°C° 0 mm 4 mps 732 mmHg 95%
    19:00 -2°C° 0 mm 5 mps 733 mmHg 94%
    20:00 -2°C° 0 mm 5 mps 733 mmHg 93%
    21:00 -4°C° 0 mm 5 mps 733 mmHg 92%
    22:00 -4°C° 0 mm 4 mps 734 mmHg 92%
    23:00 -4°C° 0 mm 4 mps 734 mmHg 91%
    Show more